When you browse on this site, cookies collect data to enhance your experience and personalize the content and advertising you see.
Visit our Privacy Policy to learn more. By continuing to use the site, you agree to this use of cookies and data.
  • In France
  • List of Countries
  • For 7 days
  • Water Temperature
  • Satellite Maps
  • Weather Map
  • Weather Widgets
  • user-avatar
    Login

    Hourly Weather Brčko

    Today, 22 March, Friday

    Time Temperature Precipitation Wind Pressure Humidity
    00:00 +6°C° 0 mm 0 mps 766 mmHg 53%
    01:00 +7°C° 0 mm 1 mps 766 mmHg 53%
    02:00 +6°C° 0 mm 0 mps 766 mmHg 54%
    03:00 +6°C° 0 mm 0 mps 766 mmHg 55%
    04:00 +5°C° 0 mm 0 mps 765 mmHg 56%
    05:00 +6°C° 0 mm 0 mps 766 mmHg 57%
    06:00 +6°C° 0 mm 0 mps 766 mmHg 57%
    07:00 +7°C° 0 mm 0 mps 766 mmHg 51%
    08:00 +9°C° 0 mm 0 mps 766 mmHg 47%
    09:00 +12°C° 0 mm 1 mps 765 mmHg 42%
    10:00 +14°C° 0 mm 1 mps 765 mmHg 38%
    11:00 +15°C° 0 mm 1 mps 765 mmHg 36%
    12:00 +16°C° 0 mm 1 mps 764 mmHg 34%
    13:00 +17°C° 0 mm 2 mps 764 mmHg 32%
    14:00 +17°C° 0 mm 2 mps 764 mmHg 33%
    15:00 +17°C° 0 mm 2 mps 763 mmHg 33%
    16:00 +17°C° 0 mm 2 mps 763 mmHg 34%
    17:00 +15°C° 0 mm 1 mps 763 mmHg 39%
    18:00 +14°C° 0 mm 1 mps 763 mmHg 43%
    19:00 +11°C° 0 mm 0 mps 763 mmHg 47%
    20:00 +10°C° 0 mm 0 mps 763 mmHg 49%
    21:00 +10°C° 0 mm 0 mps 763 mmHg 51%
    22:00 +9°C° 0 mm 0 mps 763 mmHg 53%
    23:00 +9°C° 0 mm 0 mps 763 mmHg 55%

    Tomorrow, 23 March, Saturday

    Time Temperature Precipitation Wind Pressure Humidity
    00:00 +8°C° 0 mm 0 mps 763 mmHg 56%
    01:00 +8°C° 0 mm 0 mps 763 mmHg 58%
    02:00 +8°C° 0 mm 0 mps 763 mmHg 59%
    03:00 +7°C° 0 mm 0 mps 763 mmHg 60%
    04:00 +7°C° 0 mm 0 mps 762 mmHg 62%
    05:00 +8°C° 0 mm 1 mps 762 mmHg 61%
    06:00 +9°C° 0 mm 1 mps 763 mmHg 61%
    07:00 +9°C° 0 mm 1 mps 763 mmHg 61%
    08:00 +11°C° 0 mm 1 mps 762 mmHg 57%
    09:00 +14°C° 0 mm 1 mps 762 mmHg 53%
    10:00 +16°C° 0 mm 1 mps 762 mmHg 50%
    11:00 +17°C° 0 mm 2 mps 762 mmHg 49%
    12:00 +18°C° 0 mm 2 mps 761 mmHg 47%
    13:00 +19°C° 0 mm 2 mps 761 mmHg 46%
    14:00 +19°C° 0 mm 2 mps 761 mmHg 45%
    15:00 +19°C° 0 mm 2 mps 760 mmHg 43%
    16:00 +19°C° 0 mm 2 mps 760 mmHg 42%
    17:00 +17°C° 0 mm 2 mps 760 mmHg 46%
    18:00 +15°C° 0 mm 1 mps 760 mmHg 51%
    19:00 +14°C° 0 mm 1 mps 760 mmHg 55%
    20:00 +13°C° 0 mm 1 mps 761 mmHg 57%
    21:00 +11°C° 0 mm 0 mps 761 mmHg 59%
    22:00 +11°C° 0 mm 0 mps 761 mmHg 62%
    23:00 +10°C° 0 mm 0 mps 761 mmHg 63%

    Day after tomorrow, 24 March, Sunday

    Time Temperature Precipitation Wind Pressure Humidity
    00:00 +10°C° 0 mm 0 mps 761 mmHg 65%
    01:00 +9°C° 0 mm 0 mps 761 mmHg 67%
    02:00 +10°C° 0 mm 1 mps 761 mmHg 68%
    03:00 +10°C° 0 mm 1 mps 760 mmHg 70%
    04:00 +9°C° 0 mm 1 mps 760 mmHg 72%
    05:00 +10°C° 0 mm 1 mps 760 mmHg 71%
    06:00 +10°C° 0 mm 1 mps 760 mmHg 70%
    07:00 +11°C° 0 mm 1 mps 760 mmHg 70%
    08:00 +13°C° 0 mm 1 mps 760 mmHg 62%
    09:00 +14°C° 0 mm 0 mps 760 mmHg 55%
    10:00 +17°C° 0 mm 0 mps 760 mmHg 48%
    11:00 +18°C° 0 mm 0 mps 759 mmHg 44%
    12:00 +21°C° 0 mm 1 mps 759 mmHg 40%
    13:00 +22°C° 0 mm 1 mps 758 mmHg 35%
    14:00 +21°C° 0 mm 1 mps 758 mmHg 35%
    15:00 +21°C° 0 mm 1 mps 757 mmHg 34%
    16:00 +21°C° 0 mm 1 mps 757 mmHg 33%
    17:00 +19°C° 0 mm 1 mps 757 mmHg 38%
    18:00 +18°C° 0 mm 1 mps 757 mmHg 42%
    19:00 +15°C° 0 mm 1 mps 757 mmHg 47%
    20:00 +14°C° 0 mm 1 mps 757 mmHg 48%
    21:00 +14°C° 0 mm 1 mps 757 mmHg 49%
    22:00 +13°C° 0 mm 1 mps 757 mmHg 51%
    23:00 +13°C° 0 mm 1 mps 757 mmHg 52%

    25 March, Monday

    Time Temperature Precipitation Wind Pressure Humidity
    00:00 +12°C° 0 mm 1 mps 757 mmHg 54%
    01:00 +12°C° 0 mm 1 mps 757 mmHg 55%
    02:00 +10°C° 0 mm 2 mps 757 mmHg 58%
    03:00 +10°C° 0 mm 2 mps 757 mmHg 62%
    04:00 +10°C° 0 mm 2 mps 757 mmHg 65%
    05:00 +10°C° 0 mm 2 mps 757 mmHg 66%
    06:00 +10°C° 0 mm 2 mps 757 mmHg 68%
    07:00 +12°C° 0 mm 2 mps 757 mmHg 69%
    08:00 +13°C° 0 mm 2 mps 757 mmHg 66%
    09:00 +14°C° 0 mm 1 mps 757 mmHg 63%
    10:00 +15°C° 0 mm 1 mps 757 mmHg 60%
    11:00 +15°C° 0 mm 2 mps 757 mmHg 61%
    12:00 +14°C° 0 mm 3 mps 756 mmHg 61%
    13:00 +14°C° 0 mm 4 mps 756 mmHg 61%
    14:00 +14°C° 0 mm 4 mps 755 mmHg 62%
    15:00 +14°C° 0 mm 3 mps 755 mmHg 63%
    16:00 +13°C° 0 mm 3 mps 754 mmHg 63%
    17:00 +12°C° 0.1 mm 3 mps 755 mmHg 69%
    18:00 +11°C° 0.1 mm 3 mps 755 mmHg 74%
    19:00 +10°C° 0.1 mm 3 mps 755 mmHg 80%
    20:00 +10°C° 0.8 mm 3 mps 756 mmHg 82%
    21:00 +9°C° 0.8 mm 3 mps 756 mmHg 84%
    22:00 +9°C° 0.8 mm 3 mps 756 mmHg 86%
    23:00 +8°C° 0.4 mm 3 mps 757 mmHg 83%

    26 March, Tuesday

    Time Temperature Precipitation Wind Pressure Humidity
    00:00 +7°C° 0.4 mm 4 mps 757 mmHg 80%
    01:00 +7°C° 0.4 mm 4 mps 758 mmHg 77%
    02:00 +6°C° 0.1 mm 4 mps 758 mmHg 75%
    03:00 +6°C° 0.1 mm 4 mps 758 mmHg 73%
    04:00 +5°C° 0.1 mm 4 mps 759 mmHg 70%
    05:00 +5°C° 0 mm 4 mps 759 mmHg 70%
    06:00 +5°C° 0 mm 4 mps 759 mmHg 69%
    07:00 +4°C° 0 mm 4 mps 759 mmHg 69%
    08:00 +5°C° 0 mm 5 mps 760 mmHg 64%
    09:00 +5°C° 0 mm 6 mps 760 mmHg 58%
    10:00 +6°C° 0 mm 7 mps 760 mmHg 53%
    11:00 +6°C° 0.3 mm 7 mps 760 mmHg 50%
    12:00 +7°C° 0.3 mm 8 mps 759 mmHg 48%
    13:00 +7°C° 0.3 mm 8 mps 759 mmHg 46%
    14:00 +7°C° 0.4 mm 8 mps 759 mmHg 46%
    15:00 +8°C° 0.4 mm 7 mps 759 mmHg 46%
    16:00 +8°C° 0.4 mm 7 mps 759 mmHg 46%
    17:00 +7°C° 0.1 mm 6 mps 759 mmHg 48%
    18:00 +7°C° 0.1 mm 5 mps 760 mmHg 50%
    19:00 +6°C° 0.1 mm 4 mps 760 mmHg 52%
    20:00 +5°C° 0 mm 4 mps 761 mmHg 55%
    21:00 +4°C° 0 mm 4 mps 762 mmHg 59%
    22:00 +4°C° 0 mm 4 mps 762 mmHg 62%
    23:00 +3°C° 0 mm 4 mps 762 mmHg 65%

    27 March, Wednesday

    Time Temperature Precipitation Wind Pressure Humidity
    00:00 +3°C° 0 mm 4 mps 763 mmHg 69%
    01:00 +2°C° 0 mm 3 mps 763 mmHg 72%
    02:00 +2°C° 0 mm 3 mps 763 mmHg 73%
    03:00 +1°C° 0 mm 3 mps 763 mmHg 75%
    04:00 +1°C° 0 mm 3 mps 763 mmHg 77%
    05:00 +2°C° 0 mm 2 mps 764 mmHg 74%
    06:00 +3°C° 0 mm 2 mps 764 mmHg 72%
    07:00 +3°C° 0 mm 2 mps 764 mmHg 70%
    08:00 +5°C° 0 mm 2 mps 764 mmHg 64%
    09:00 +5°C° 0 mm 3 mps 765 mmHg 59%
    10:00 +8°C° 0 mm 3 mps 765 mmHg 53%
    11:00 +9°C° 0 mm 3 mps 764 mmHg 49%
    12:00 +11°C° 0 mm 4 mps 764 mmHg 44%
    13:00 +12°C° 0 mm 4 mps 764 mmHg 40%
    14:00 +12°C° 0 mm 4 mps 764 mmHg 39%
    15:00 +12°C° 0 mm 4 mps 763 mmHg 37%
    16:00 +12°C° 0 mm 3 mps 763 mmHg 36%
    17:00 +10°C° 0 mm 3 mps 763 mmHg 39%
    18:00 +9°C° 0 mm 2 mps 764 mmHg 42%
    19:00 +7°C° 0 mm 2 mps 764 mmHg 44%
    20:00 +7°C° 0 mm 1 mps 764 mmHg 45%
    21:00 +7°C° 0 mm 1 mps 765 mmHg 46%
    22:00 +6°C° 0 mm 1 mps 765 mmHg 46%
    23:00 +6°C° 0 mm 1 mps 765 mmHg 48%
    Show more